Regional Weather Roundup
Issued by NWS Grand Forks, ND

Home | Current Version | Previous Version | Graphics & Text | Print | Product List | Glossary On
Versions: 1 2 3 4 5 6 7 8 9 10 11 12 13 14 15 16 17 18 19 20 21 22 23 24 25 26 27 28 29 30 31 32 33 34 35 36 37 38 39 40 41 42 43 44 45 46 47 48 49 50
000
ASUS43 KFGF 241731
RWRFGF
PRAIRIE TO PINES  WEATHER ROUNDUP
NATIONAL WEATHER SERVICE EASTERN NORTH DAKOTA/GRAND FORKS ND
1200 PM CDT SUN JUL 24 2016

 **SATELLITE DATA USED TO AUGMENT SKY COVER AT AUTOMATED STATIONS**
 *****  WEATHER ACROSS EASTERN NORTH DAKOTA  *****

CITY           SKY/WX    TMP DP  RH WIND       PRES   REMARKS
GRAND FORKS    FAIR      77  64  64 W15G22    29.87R
GRAND FRKS AFB FAIR      77  63  63 W14       29.88R
GRAND FRKS NWS   N/A     77 N/A N/A W23         N/A
DEVILS LAKE    FAIR      73  61  65 W18G24    29.94S
FARGO          FAIR      79  63  57 W16       29.91S
WAHPETON ARPT  FAIR      77  61  57 NW15G21   29.94S
$$

 ***** WEATHER ACROSS CENTRAL AND WESTERN NORTH DAKOTA  *****

CITY           SKY/WX    TMP DP  RH WIND       PRES   REMARKS
BISMARCK       SUNNY     78  57  48 W12       30.05S
MINOT          FAIR      79  55  43 W20       30.00R
JAMESTOWN      FAIR      76  56  49 NW17G25   29.98R
MINOT AFB      FAIR      74  58  56 NW21      29.98R
GARRISON         N/A     75  56  51 W13       30.04R
WILLISTON      SUNNY     78  53  41 W12       30.06S
DICKINSON      SUNNY     75  52  44 W8        30.08S
HETTINGER      SUNNY     80  48  32 W7        30.12S
$$

 *****  OTHER AIRPORT OBSERVATIONS IN OUR AREA  *****

CITY           SKY/WX    TMP DP  RH WIND       PRES   REMARKS
WALHALLA       FAIR      75  72  88 W12G20    29.86R
GRAFTON AIRPOR FAIR      77  64  65 W17       29.88R
VALLEY CITY AR FAIR      75  59  57 NW20G26   29.99R
CANDO          FAIR      73  63  68 W15G23    29.96R
CAVALIER APRT  FAIR      75  63  64 W14G21    29.86R
GWINNER        FAIR      79  61  53 NW15G25   29.97F
SHEYENNE NWR     N/A     80  60  50 NW14      29.95S
ROLLA            N/A     72  57  60 W17G24    29.95R
 ***** THE ABOVE OBSERVATIONS ARE NON NWS ARE NOT QUALITY
       CONTROLLED AND MAY MIS-REPORT RAIN FOR SNOW...
$$

  *****  WEATHER ACROSS NORTHERN MINNESOTA  *****

CITY           SKY/WX    TMP DP  RH WIND       PRES   REMARKS
FLAG ISLAND    FAIR      72  59  64 W21G28    29.77R
WARROAD        PTSUNNY   73  64  73 W13G20    29.82R
ROSEAU         FAIR      73  64  73 W10       29.83R
HALLOCK        FAIR      75  63  64 W15G21    29.83S
THF RVR FALLS  NOT AVBL
BAUDETTE       PTSUNNY   74  61  63 NW12G21   29.80R
WASKISH        FAIR      73  64  73 W17       29.84R
CROOKSTON      FAIR      75  64  69 W15G22    29.88S
STEPHEN NDAWN    N/A     75  63  64 W14         N/A
GREENBUSH NDAW   N/A     75  64  69 W12         N/A
$$
  *****  WEATHER ACROSS CENTRAL AND WEST MINNESOTA  *****

CITY           SKY/WX    TMP DP  RH WIND       PRES   REMARKS
FOSSTON        FAIR      73  61  64 W13G20    29.90S
BEMIDJI        FAIR      73  59  60 W18G24    29.88R
PARK RAPIDS    FAIR      75  60  59 W16       29.90R
ELBOW LAKE     FAIR      74  63  68 NW10      29.96S
WADENA         FAIR      72  61  68 W10       29.92R
DETROIT LAKES  FAIR      73  63  68 NW16      29.94R
MOORHEAD       FAIR      79  61  53 W17G25    29.92S
FERGUS FALLS   FAIR      75  63  64 NW13      29.95S
MORRIS MN      FAIR      79  63  57 NW9       29.95S
STAPLES        FAIR      73  59  60 W15       29.92R
$$
  *****  WEATHER ELSEWHERE ACROSS MINNESOTA  *****

CITY           SKY/WX    TMP DP  RH WIND       PRES   REMARKS
DULUTH         FAIR      78  63  59 W18       29.81R
INTRNTL FALLS  PTSUNNY   72  61  68 W12       29.79R
ELY            FAIR      73  59  60 W13G18    29.78R
CLOQUET        FAIR      77  59  53 W12G21    29.84R
WHEATON        FAIR      79  64  61 NW13G18   29.98R
BRAINERD       FAIR      74  61  63 NW10      29.90R
HIBBING        FAIR      73  60  63 W14G24    29.82R
ALEXANDRIA     FAIR      73  61  65 W15G21    29.97R
SAINT CLOUD    FAIR      76  63  64 W17       29.91R
MINNEAPOLIS    FAIR      82  61  48 W14       29.88S
$$

  *****  WEATHER ACROSS SOUTH DAKOTA  *****

CITY           SKY/WX    TMP DP  RH WIND       PRES   REMARKS
SIOUX FALLS    FAIR      79  61  53 NW8       30.02R
BROOKINGS      FAIR      75  61  61 NW6       30.02R
WATERTOWN      FAIR      75  60  59 N10       29.99S
HURON          CLOUDY    77  60  55 N8        30.03R
SISSETON         N/A     77  60  55 N20       29.95S
ABERDEEN       PTSUNNY   78  60  53 N13       29.98F
MITCHELL       PTSUNNY   77  63  61 N7        30.05R
PIERRE         PTSUNNY   74  57  55 NW7       30.06R
MOBRIDGE       CLOUDY    79  57  46 NW12      30.04R
RAPID CITY     MOSUNNY   76  52  43 S7        30.16S
$$

  *****  SOME WEATHER IN NEARBY STATES *****

CITY           SKY/WX    TMP DP  RH WIND       PRES   REMARKS
GLASGOW MT     SUNNY     77  55  46 S7        30.04F
GREAT FALLS MT SUNNY     73  38  27 W6        30.12F
CHEYENNE WY    MOSUNNY   79  51  37 S10       30.25R
SCOTTSBLUFF NE MOSUNNY   81  54  39 E13       30.17R
OMAHA NE       PTSUNNY   85  66  53 N8        29.98R
DES MOINES IA  FAIR      89  74  60 N12       29.92R HX  98
DAVENPORT IA   FAIR      87  79  76 SW9       29.88R HX 101
CHICAGO IL     PTSUNNY   87  77  72 SW14G22   29.88F HX  99
EAU CLAIRE WI  FAIR      83  68  60 W12       29.84R
LA CROSSE WI   FAIR      88  74  63 NW12      29.83R HX  96
$$

  *****  SOME NATIONAL WEATHER *****

CITY           SKY/WX    TMP DP  RH WIND       PRES   REMARKS
LA GUARDIA NY  PTSUNNY   90  59  35 NW6       29.96S
RALEIGH NC     PTSUNNY   92  74  55 SE6       30.04S HX 101
ATLANTA GA     PTSUNNY   92  69  47 W9        30.07F HX  97
NEW ORLEANS LA FAIR      91  76  61 NE9       30.00S HX 103
OKLAHOMA CITY  FAIR      94  70  45 S13G22    29.99R HX 100
ALBUQUERQUE NM MOSUNNY   88  49  25 NW8       30.18S
SALT LAKE CITY MOSUNNY   83  37  19 CALM      30.12S
LOS ANGELES CA MOSUNNY   78  65  63 SE7       29.91R
BOISE ID       SUNNY     73  42  32 NW3       30.10S
SEATTLE WA     SUNNY     67  56  67 NW7       30.14S
$$

*** WEATHER ACROSS MANITOBA...SASKATCHEWAN AND ONTARIO ***
                ***ONTARIO***

CITY           SKY/WX    TMP DP  RH WIND       PRES   REMARKS
GERALDTON      CLOUDY    68  66  94 N8        29.72S
THUNDER BAY    PTSUNNY   72  68  88 CALM      29.70S
SIOUX LOOKOUT  PTSUNNY   73  61  64 NW16G23   29.68R
TORONTO        PTSUNNY   81  63  54 SE8       29.98F
BIG TROUT LK   LGT RAIN  63  61  94 SE14      29.53F
PICKLE LAKE    CLOUDY    68  64  88 S8        29.59F
DRYDEN         CLOUDY    70  59  68 W17G23    29.72R
KENORA         PTSUNNY   68  59  73 W14G21    29.75R
$$
                *** MANITOBA***

CITY           SKY/WX    TMP DP  RH WIND       PRES   REMARKS
BRANDON        MOSUNNY   73  61  64 W15G25    29.88R
DAUPHIN        PTSUNNY   72  61  68 NW13G21   29.84R
ISLAND LAKE    LGT RAIN  63  61  94 N9G20     29.61R
PILOT MOUND      N/A     72  59  64 W13G21      N/A
THE PAS        PTSUNNY   68  59  73 N6        29.81S
THOMPSON       CLOUDY    66  61  82 N7        29.75R
WINNIPEG       PTSUNNY   72  63  73 NW20      29.80R
LYNN LAKE      SUNNY     68  54  60 MISG      29.80S
CHURCHILL      MOSUNNY   57  52  82 NE10      29.81R
GILLAM         CLOUDY    61  57  88 N18       29.73R
$$
                ***SASKATCHEWAN***

CITY           SKY/WX    TMP DP  RH WIND       PRES   REMARKS
ESTEVAN        MOSUNNY   73  55  53 NW18      30.02R
KINDERSLEY     MOSUNNY   72  57  60 S6        30.01S
LLOYDMINSTER   MOSUNNY   72  55  56 SW12      29.95
PRINCE ALBERT  MOSUNNY   73  55  53 NW8G17    29.90S
REGINA         MOSUNNY   70  55  60 W14G22    30.00F
YORKTON        MOSUNNY   72  61  68 NW14G22   29.91R
N. BATTLEFORD  PTSUNNY   72  54  53 W6        29.98S
LA RONGE       MOSUNNY   72  57  60 SW9       29.84R
SASKATOON      MOSUNNY   70  54  56 NW12      29.99S
SWIFT CURRENT  SUNNY     72  54  53 SE5       30.03S
$$
NOTE: THESE ARE AUTOMATED STATIONS WITH LIMITED QUALITY CONTROL
      "FAIR" INDICATES FEW OR NO CLOUDS BELOW 12,000 FEET WITH NO
      SIGNIFICANT WEATHER AND/OR OBSTRUCTIONS TO VISIBILITY.
      SKY/WX - SKY CONDITION AND SIGNIFICANT WEATHER.
      TMP - AIR TEMPERATURE.    DP   - DEWPOINT TEMPERATURE.
      RH  - RELATIVE HUMIDITY.  PRES - PRESSURE.
      HX  - HEAT INDEX.         WCI  - WIND CHILL INDEX.
$




USA.gov is the U.S. government's official web portal to all federal, state and local government web resources and services.